Location: Unspecified
(0.0000°N, 0.0000°E)
Time: 11:18:19
(UTC+00:00)

Vanguard 1 Rocket - Pass Details

Date: 19 November 2019
Orbit: 650 x 4226 km, 34.3° (Epoch: 13 December)

Event Time Altitude Azimuth Distance (km) Brightness Sun altitude
Rises 16:33:34 0° 242° (WSW) 8,075 14.0 16.9°
Reaches altitude 10° 16:42:05 10° 227° (SW) 7,351 13.5 14.9°
Maximum altitude 16:59:37 21° 184° (S) 6,325 12.1 10.8°
Drops below altitude 10° 17:14:53 10° 141° (SE) 6,389 11.5 7.2°
Sets 17:21:23 0° 125° (SE) 6,822 11.5 5.7°
